User: anonymous
Location: Campbell River
(50.0170°N, 125.2500°W)
Time: 19:35:45
(UTC-07:00)
Language:

SL-8 R/B - Orbit

View from above orbital plane
View from above orbital plane
View from above satellite
View from above satellite

Ground track
Ground track

The orbit data is extracted from the following two-line orbital elements,

1 31798U 07030B   14209.14964440  .00103013  00000-0  43564-3 0  1665
2 31798 098.1888 262.6071 0009718 138.8386 280.7312 15.85037666395937
Epoch (UTC): 28 July 2014 03:35:29
Eccentricity: 0.0009718
inclination: 98.1888°
perigee height: 310 km
apogee height: 323 km
right ascension of ascending node: 262.6071°
argument of perigee: 138.8386°
revolutions per day: 15.85037666
mean anomaly at epoch: 280.7312°
orbit number at epoch: 39593

The dashed part of the orbit path shows where the satellite is in the earth's shadow,  

DLR